Location: Waco, TX
(31.5480°N, 97.1670°W)
Time: 04:04:44
(UTC-06:00)

ISS - Pass Details

Date: 19 November 2017
Orbit: 401 x 407 km, 51.6° (Epoch: 18 November)

Event Time Altitude Azimuth Distance (km) Brightness Sun altitude
Rises 05:19:54 0° 317° (NW) 2,311 - -21.3°
Reaches altitude 10° 05:22:00 10° 320° (NW) 1,450 - -20.9°
Exits shadow 05:25:07 66° 29° (NNE) 438 -3.7 -20.2°
Maximum altitude 05:25:13 67° 44° (NE) 436 -3.7 -20.2°
Drops below altitude 10° 05:28:26 10° 128° (SE) 1,443 -0.1 -19.5°
Sets 05:30:31 0° 131° (SE) 2,298 1.1 -19.1°
